Year,Month,Day,Hour,Minute,Value (Times are PST for temperature in C)
2004,04,09,00,00,9.20
2004,04,09,00,01,9.20
2004,04,09,00,02,9.10
2004,04,09,00,03,9.00
2004,04,09,00,04,9.00
2004,04,09,00,05,8.90
2004,04,09,00,06,8.90
2004,04,09,00,07,8.90
2004,04,09,00,08,9.00
2004,04,09,00,09,9.00
2004,04,09,00,10,9.10
2004,04,09,00,11,9.10
2004,04,09,00,12,9.20
2004,04,09,00,13,9.20
2004,04,09,00,14,9.30
2004,04,09,00,15,9.30
2004,04,09,00,16,9.20
2004,04,09,00,17,9.20
2004,04,09,00,18,9.10
2004,04,09,00,19,9.00
2004,04,09,00,20,9.00
2004,04,09,00,21,9.00
2004,04,09,00,22,9.00
2004,04,09,00,23,9.10
2004,04,09,00,24,9.20
2004,04,09,00,25,9.20
2004,04,09,00,26,9.30
2004,04,09,00,27,9.30
2004,04,09,00,28,9.40
2004,04,09,00,29,9.40
2004,04,09,00,30,9.50
2004,04,09,00,31,9.50
2004,04,09,00,32,9.40
2004,04,09,00,33,9.30
2004,04,09,00,34,9.20
2004,04,09,00,35,9.10
2004,04,09,00,36,9.00
2004,04,09,00,37,8.90
2004,04,09,00,38,9.10
2004,04,09,00,39,9.00
2004,04,09,00,40,9.20
2004,04,09,00,41,9.10
2004,04,09,00,42,9.10
2004,04,09,00,43,9.00
2004,04,09,00,44,8.90
2004,04,09,00,45,8.80
2004,04,09,00,46,8.80
2004,04,09,00,47,8.90
2004,04,09,00,48,8.90
2004,04,09,00,49,8.90
2004,04,09,00,50,9.00
2004,04,09,00,51,9.10
2004,04,09,00,52,9.10
2004,04,09,00,53,9.20
2004,04,09,00,54,9.20
2004,04,09,00,55,9.20
2004,04,09,00,56,9.20
2004,04,09,00,57,9.20
2004,04,09,00,58,9.20
2004,04,09,00,59,9.40
2004,04,09,01,00,9.40
2004,04,09,01,01,9.50
2004,04,09,01,02,9.50
2004,04,09,01,03,9.60
2004,04,09,01,04,9.70
2004,04,09,01,05,9.70
2004,04,09,01,06,9.80
2004,04,09,01,07,9.90
2004,04,09,01,08,9.90
2004,04,09,01,09,9.90
2004,04,09,01,10,9.90
2004,04,09,01,11,9.90
2004,04,09,01,12,9.90
2004,04,09,01,13,9.90
2004,04,09,01,14,10.00
2004,04,09,01,15,10.10
2004,04,09,01,16,10.10
2004,04,09,01,17,10.10
2004,04,09,01,18,10.00
2004,04,09,01,19,10.10
2004,04,09,01,20,9.90
2004,04,09,01,21,9.90
2004,04,09,01,22,9.80
2004,04,09,01,23,9.80
2004,04,09,01,24,9.80
2004,04,09,01,25,9.80
2004,04,09,01,26,9.80
2004,04,09,01,27,9.80
2004,04,09,01,28,9.70
2004,04,09,01,29,9.70
2004,04,09,01,30,9.70
2004,04,09,01,31,9.70
2004,04,09,01,32,9.60
2004,04,09,01,33,9.60
2004,04,09,01,34,9.50
2004,04,09,01,35,9.40
2004,04,09,01,36,9.30
2004,04,09,01,37,9.30
2004,04,09,01,38,9.30
2004,04,09,01,39,9.30
2004,04,09,01,40,9.30
2004,04,09,01,41,9.30
2004,04,09,01,42,9.20
2004,04,09,01,43,9.20
2004,04,09,01,44,9.20
2004,04,09,01,45,9.20
2004,04,09,01,46,9.10
2004,04,09,01,47,9.10
2004,04,09,01,48,9.20
2004,04,09,01,49,9.20
2004,04,09,01,50,9.20
2004,04,09,01,51,9.20
2004,04,09,01,52,9.20
2004,04,09,01,53,9.20
2004,04,09,01,54,9.20
2004,04,09,01,55,9.30
2004,04,09,01,56,9.40
2004,04,09,01,57,9.30
2004,04,09,01,58,9.40
2004,04,09,01,59,9.40
2004,04,09,02,00,9.50
2004,04,09,02,01,9.40
2004,04,09,02,02,9.50
2004,04,09,02,03,9.50
2004,04,09,02,04,9.50
2004,04,09,02,05,9.50
2004,04,09,02,06,9.50
2004,04,09,02,07,9.50
2004,04,09,02,08,9.50
2004,04,09,02,09,9.40
2004,04,09,02,10,9.40
2004,04,09,02,11,9.40
2004,04,09,02,12,9.30
2004,04,09,02,13,9.30
2004,04,09,02,14,9.20
2004,04,09,02,15,9.20
2004,04,09,02,16,9.10
2004,04,09,02,17,9.00
2004,04,09,02,18,9.00
2004,04,09,02,19,8.90
2004,04,09,02,20,8.90
2004,04,09,02,21,8.90
2004,04,09,02,22,8.80
2004,04,09,02,23,8.80
2004,04,09,02,24,8.80
2004,04,09,02,25,8.80
2004,04,09,02,26,8.70
2004,04,09,02,27,8.70
2004,04,09,02,28,8.70
2004,04,09,02,29,8.60
2004,04,09,02,30,8.50
2004,04,09,02,31,8.50
2004,04,09,02,32,8.40
2004,04,09,02,33,8.40
2004,04,09,02,34,8.40
2004,04,09,02,35,8.30
2004,04,09,02,36,8.30
2004,04,09,02,37,8.40
2004,04,09,02,38,8.40
2004,04,09,02,39,8.40
2004,04,09,02,40,8.40
2004,04,09,02,41,8.40
2004,04,09,02,42,8.40
2004,04,09,02,43,8.40
2004,04,09,02,44,8.40
2004,04,09,02,45,8.40
2004,04,09,02,46,8.40
2004,04,09,02,47,8.40
2004,04,09,02,48,8.40
2004,04,09,02,49,8.40
2004,04,09,02,50,8.40
2004,04,09,02,51,8.40
2004,04,09,02,52,8.40
2004,04,09,02,53,8.40
2004,04,09,02,54,8.40
2004,04,09,02,55,8.30
2004,04,09,02,56,8.20
2004,04,09,02,57,8.20
2004,04,09,02,58,8.20
2004,04,09,02,59,8.20
2004,04,09,03,00,8.20
2004,04,09,03,01,8.10
2004,04,09,03,02,8.10
2004,04,09,03,03,8.00
2004,04,09,03,04,8.00
2004,04,09,03,05,7.90
2004,04,09,03,06,7.90
2004,04,09,03,07,7.90
2004,04,09,03,08,7.90
2004,04,09,03,09,8.00
2004,04,09,03,10,8.00
2004,04,09,03,11,7.90
2004,04,09,03,12,7.90
2004,04,09,03,13,7.90
2004,04,09,03,14,7.90
2004,04,09,03,15,7.90
2004,04,09,03,16,7.90
2004,04,09,03,17,7.90
2004,04,09,03,18,8.00
2004,04,09,03,19,8.00
2004,04,09,03,20,8.00
2004,04,09,03,21,8.10
2004,04,09,03,22,8.10
2004,04,09,03,23,8.10
2004,04,09,03,24,8.10
2004,04,09,03,25,8.00
2004,04,09,03,26,7.90
2004,04,09,03,27,7.90
2004,04,09,03,28,7.90
2004,04,09,03,29,7.90
2004,04,09,03,30,7.90
2004,04,09,03,31,8.00
2004,04,09,03,32,8.00
2004,04,09,03,33,8.10
2004,04,09,03,34,8.10
2004,04,09,03,35,8.10
2004,04,09,03,36,8.10
2004,04,09,03,37,8.00
2004,04,09,03,38,8.00
2004,04,09,03,39,7.90
2004,04,09,03,40,8.00
2004,04,09,03,41,8.00
2004,04,09,03,42,8.00
2004,04,09,03,43,8.00
2004,04,09,03,44,8.10
2004,04,09,03,45,8.00
2004,04,09,03,46,7.80
2004,04,09,03,47,7.70
2004,04,09,03,48,7.60
2004,04,09,03,49,7.40
2004,04,09,03,50,7.30
2004,04,09,03,51,7.10
2004,04,09,03,52,7.00
2004,04,09,03,53,6.90
2004,04,09,03,54,6.80
2004,04,09,03,55,6.80
2004,04,09,03,56,6.90
2004,04,09,03,57,7.00
2004,04,09,03,58,7.00
2004,04,09,03,59,7.10
2004,04,09,04,00,7.00
2004,04,09,04,01,7.00
2004,04,09,04,02,7.10
2004,04,09,04,03,7.10
2004,04,09,04,04,7.00
2004,04,09,04,05,7.00
2004,04,09,04,06,7.20
2004,04,09,04,07,7.30
2004,04,09,04,08,7.30
2004,04,09,04,09,7.40
2004,04,09,04,10,7.50
2004,04,09,04,11,7.50
2004,04,09,04,12,7.70
2004,04,09,04,13,7.70
2004,04,09,04,14,7.70
2004,04,09,04,15,7.60
2004,04,09,04,16,7.50
2004,04,09,04,17,7.40
2004,04,09,04,18,7.30
2004,04,09,04,19,7.30
2004,04,09,04,20,7.30
2004,04,09,04,21,7.30
2004,04,09,04,22,7.30
2004,04,09,04,23,7.20
2004,04,09,04,24,7.20
2004,04,09,04,25,7.20
2004,04,09,04,26,7.30
2004,04,09,04,27,7.30
2004,04,09,04,28,7.40
2004,04,09,04,29,7.40
2004,04,09,04,30,7.50
2004,04,09,04,31,7.60
2004,04,09,04,32,7.70
2004,04,09,04,33,7.90
2004,04,09,04,34,7.90
2004,04,09,04,35,8.00
2004,04,09,04,36,8.00
2004,04,09,04,37,8.00
2004,04,09,04,38,7.90
2004,04,09,04,39,7.90
2004,04,09,04,40,7.90
2004,04,09,04,41,8.00
2004,04,09,04,42,7.90
2004,04,09,04,43,7.90
2004,04,09,04,44,8.00
2004,04,09,04,45,8.00
2004,04,09,04,46,8.00
2004,04,09,04,47,8.10
2004,04,09,04,48,8.00
2004,04,09,04,49,7.90
2004,04,09,04,50,7.90
2004,04,09,04,51,7.80
2004,04,09,04,52,7.80
2004,04,09,04,53,7.80
2004,04,09,04,54,7.70
2004,04,09,04,55,7.70
2004,04,09,04,56,7.60
2004,04,09,04,57,7.50
2004,04,09,04,58,7.60
2004,04,09,04,59,7.50
2004,04,09,05,00,7.50
2004,04,09,05,01,7.50
2004,04,09,05,02,7.50
2004,04,09,05,03,7.40
2004,04,09,05,04,7.40
2004,04,09,05,05,7.40
2004,04,09,05,06,7.40
2004,04,09,05,07,7.40
2004,04,09,05,08,7.40
2004,04,09,05,09,7.40
2004,04,09,05,10,7.40
2004,04,09,05,11,7.30
2004,04,09,05,12,7.30
2004,04,09,05,13,7.40
2004,04,09,05,14,7.50
2004,04,09,05,15,7.50
2004,04,09,05,16,7.40
2004,04,09,05,17,7.40
2004,04,09,05,18,7.40
2004,04,09,05,19,7.40
2004,04,09,05,20,7.50
2004,04,09,05,21,7.50
2004,04,09,05,22,7.60
2004,04,09,05,23,7.60
2004,04,09,05,24,7.70
2004,04,09,05,25,7.70
2004,04,09,05,26,7.70
2004,04,09,05,27,7.70
2004,04,09,05,28,7.80
2004,04,09,05,29,7.80
2004,04,09,05,30,7.80
2004,04,09,05,31,7.80
2004,04,09,05,32,7.80
2004,04,09,05,33,7.70
2004,04,09,05,34,7.60
2004,04,09,05,35,7.60
2004,04,09,05,36,7.60
2004,04,09,05,37,7.50
2004,04,09,05,38,7.50
2004,04,09,05,39,7.40
2004,04,09,05,40,7.30
2004,04,09,05,41,7.20
2004,04,09,05,42,7.10
2004,04,09,05,43,7.10
2004,04,09,05,44,7.00
2004,04,09,05,45,7.00
2004,04,09,05,46,7.00
2004,04,09,05,47,7.10
2004,04,09,05,48,7.10
2004,04,09,05,49,7.10
2004,04,09,05,50,7.20
2004,04,09,05,51,7.20
2004,04,09,05,52,7.30
2004,04,09,05,53,7.40
2004,04,09,05,54,7.50
2004,04,09,05,55,7.60
2004,04,09,05,56,7.60
2004,04,09,05,57,7.60
2004,04,09,05,58,7.60
2004,04,09,05,59,7.60
2004,04,09,06,00,7.60
2004,04,09,06,01,7.60
2004,04,09,06,02,7.60
2004,04,09,06,03,7.50
2004,04,09,06,04,7.40
2004,04,09,06,05,7.30
2004,04,09,06,06,7.30
2004,04,09,06,07,7.20
2004,04,09,06,08,7.20
2004,04,09,06,09,7.30
2004,04,09,06,10,7.30
2004,04,09,06,11,7.30
2004,04,09,06,12,7.40
2004,04,09,06,13,7.40
2004,04,09,06,14,7.30
2004,04,09,06,15,7.30
2004,04,09,06,16,7.30
2004,04,09,06,17,7.30
2004,04,09,06,18,7.30
2004,04,09,06,19,7.30
2004,04,09,06,20,7.40
2004,04,09,06,21,7.40
2004,04,09,06,22,7.40
2004,04,09,06,23,7.30
2004,04,09,06,24,7.30
2004,04,09,06,25,7.30
2004,04,09,06,26,7.40
2004,04,09,06,27,7.40
2004,04,09,06,28,7.40
2004,04,09,06,29,7.40
2004,04,09,06,30,7.30
2004,04,09,06,31,7.40
2004,04,09,06,32,7.50
2004,04,09,06,33,7.50
2004,04,09,06,34,7.50
2004,04,09,06,35,7.40
2004,04,09,06,36,7.30
2004,04,09,06,37,7.20
2004,04,09,06,38,7.20
2004,04,09,06,39,7.10
2004,04,09,06,40,7.10
2004,04,09,06,41,7.00
2004,04,09,06,42,6.90
2004,04,09,06,43,6.80
2004,04,09,06,44,6.80
2004,04,09,06,45,6.80
2004,04,09,06,46,6.80
2004,04,09,06,47,6.70
2004,04,09,06,48,6.70
2004,04,09,06,49,6.70
2004,04,09,06,50,6.80
2004,04,09,06,51,6.80
2004,04,09,06,52,6.90
2004,04,09,06,53,7.00
2004,04,09,06,54,7.00
2004,04,09,06,55,7.20
2004,04,09,06,56,7.30
2004,04,09,06,57,7.50
2004,04,09,06,58,7.60
2004,04,09,06,59,7.70
2004,04,09,07,00,7.80
2004,04,09,07,01,7.80
2004,04,09,07,02,7.80
2004,04,09,07,03,7.90
2004,04,09,07,04,7.90
2004,04,09,07,05,7.90
2004,04,09,07,06,8.00
2004,04,09,07,07,8.10
2004,04,09,07,08,8.20
2004,04,09,07,09,8.20
2004,04,09,07,10,8.30
2004,04,09,07,11,8.30
2004,04,09,07,12,8.30
2004,04,09,07,13,8.30
2004,04,09,07,14,8.40
2004,04,09,07,15,8.40
2004,04,09,07,16,8.60
2004,04,09,07,17,8.60
2004,04,09,07,18,8.70
2004,04,09,07,19,8.70
2004,04,09,07,20,8.70
2004,04,09,07,21,8.70
2004,04,09,07,22,8.70
2004,04,09,07,23,8.80
2004,04,09,07,24,8.90
2004,04,09,07,25,8.90
2004,04,09,07,26,8.90
2004,04,09,07,27,8.90
2004,04,09,07,28,8.90
2004,04,09,07,29,9.00
2004,04,09,07,30,9.10
2004,04,09,07,31,9.20
2004,04,09,07,32,9.20
2004,04,09,07,33,9.30
2004,04,09,07,34,9.40
2004,04,09,07,35,9.50
2004,04,09,07,36,9.50
2004,04,09,07,37,9.60
2004,04,09,07,38,9.70
2004,04,09,07,39,9.70
2004,04,09,07,40,9.80
2004,04,09,07,41,9.80
2004,04,09,07,42,9.90
2004,04,09,07,43,9.90
2004,04,09,07,44,9.90
2004,04,09,07,45,10.10
2004,04,09,07,46,10.10
2004,04,09,07,47,10.10
2004,04,09,07,48,10.10
2004,04,09,07,49,10.10
2004,04,09,07,50,10.10
2004,04,09,07,51,10.10
2004,04,09,07,52,10.00
2004,04,09,07,53,10.00
2004,04,09,07,54,10.00
2004,04,09,07,55,10.00
2004,04,09,07,56,10.10
2004,04,09,07,57,10.10
2004,04,09,07,58,10.10
2004,04,09,07,59,10.10
2004,04,09,08,00,10.20
2004,04,09,08,01,10.20
2004,04,09,08,02,10.20
2004,04,09,08,03,10.30
2004,04,09,08,04,10.30
2004,04,09,08,05,10.40
2004,04,09,08,06,10.40
2004,04,09,08,07,10.40
2004,04,09,08,08,10.40
2004,04,09,08,09,10.40
2004,04,09,08,10,10.40
2004,04,09,08,11,10.40
2004,04,09,08,12,10.40
2004,04,09,08,13,10.40
2004,04,09,08,14,10.40
2004,04,09,08,15,10.40
2004,04,09,08,16,10.50
2004,04,09,08,17,10.60
2004,04,09,08,18,10.60
2004,04,09,08,19,10.60
2004,04,09,08,20,10.60
2004,04,09,08,21,10.70
2004,04,09,08,22,10.80
2004,04,09,08,23,10.80
2004,04,09,08,24,10.80
2004,04,09,08,25,10.80
2004,04,09,08,26,10.90
2004,04,09,08,27,10.90
2004,04,09,08,28,10.90
2004,04,09,08,29,10.90
2004,04,09,08,30,10.90
2004,04,09,08,31,10.90
2004,04,09,08,32,10.90
2004,04,09,08,33,10.90
2004,04,09,08,34,11.00
2004,04,09,08,35,11.10
2004,04,09,08,36,11.10
2004,04,09,08,37,11.10
2004,04,09,08,38,11.10
2004,04,09,08,39,11.20
2004,04,09,08,40,11.20
2004,04,09,08,41,11.30
2004,04,09,08,42,11.40
2004,04,09,08,43,11.50
2004,04,09,08,44,11.60
2004,04,09,08,45,11.60
2004,04,09,08,46,11.70
2004,04,09,08,47,11.70
2004,04,09,08,48,11.70
2004,04,09,08,49,11.70
2004,04,09,08,50,11.80
2004,04,09,08,51,11.80
2004,04,09,08,52,11.80
2004,04,09,08,53,11.80
2004,04,09,08,54,11.80
2004,04,09,08,55,11.90
2004,04,09,08,56,11.90
2004,04,09,08,57,11.90
2004,04,09,08,58,11.80
2004,04,09,08,59,11.80
2004,04,09,09,00,11.90
2004,04,09,09,01,11.90
2004,04,09,09,02,11.90
2004,04,09,09,03,11.90
2004,04,09,09,04,11.90
2004,04,09,09,05,11.90
2004,04,09,09,06,11.90
2004,04,09,09,07,11.80
2004,04,09,09,08,11.80
2004,04,09,09,09,11.80
2004,04,09,09,10,11.80
2004,04,09,09,11,11.80
2004,04,09,09,12,11.80
2004,04,09,09,13,11.80
2004,04,09,09,14,11.80
2004,04,09,09,15,11.80
2004,04,09,09,16,11.80
2004,04,09,09,17,11.80
2004,04,09,09,18,11.90
2004,04,09,09,19,11.90
2004,04,09,09,20,11.90
2004,04,09,09,21,11.90
2004,04,09,09,22,12.00
2004,04,09,09,23,12.00
2004,04,09,09,24,12.00
2004,04,09,09,25,12.00
2004,04,09,09,26,11.90
2004,04,09,09,27,11.90
2004,04,09,09,28,11.90
2004,04,09,09,29,11.90
2004,04,09,09,30,11.90
2004,04,09,09,31,11.90
2004,04,09,09,32,11.80
2004,04,09,09,33,11.80
2004,04,09,09,34,11.80
2004,04,09,09,35,11.80
2004,04,09,09,36,11.80
2004,04,09,09,37,11.90
2004,04,09,09,38,11.90
2004,04,09,09,39,12.00
2004,04,09,09,40,12.00
2004,04,09,09,41,12.10
2004,04,09,09,42,12.10
2004,04,09,09,43,12.20
2004,04,09,09,44,12.20
2004,04,09,09,45,12.30
2004,04,09,09,46,12.30
2004,04,09,09,47,12.20
2004,04,09,09,48,12.10
2004,04,09,09,49,12.10
2004,04,09,09,50,12.00
2004,04,09,09,51,12.10
2004,04,09,09,52,12.10
2004,04,09,09,53,12.10
2004,04,09,09,54,12.20
2004,04,09,09,55,12.20
2004,04,09,09,56,12.30
2004,04,09,09,57,12.40
2004,04,09,09,58,12.50
2004,04,09,09,59,12.50
2004,04,09,10,00,12.60
2004,04,09,10,01,12.60
2004,04,09,10,02,12.60
2004,04,09,10,03,12.70
2004,04,09,10,04,12.70
2004,04,09,10,05,12.70
2004,04,09,10,06,12.80
2004,04,09,10,07,12.80
2004,04,09,10,08,12.80
2004,04,09,10,09,12.70
2004,04,09,10,10,12.80
2004,04,09,10,11,12.80
2004,04,09,10,12,12.80
2004,04,09,10,13,12.80
2004,04,09,10,14,12.70
2004,04,09,10,15,12.70
2004,04,09,10,16,12.80
2004,04,09,10,17,12.80
2004,04,09,10,18,12.90
2004,04,09,10,19,12.90
2004,04,09,10,20,12.90
2004,04,09,10,21,12.90
2004,04,09,10,22,12.80
2004,04,09,10,23,12.80
2004,04,09,10,24,12.80
2004,04,09,10,25,12.80
2004,04,09,10,26,12.80
2004,04,09,10,27,12.90
2004,04,09,10,28,12.90
2004,04,09,10,29,12.90
2004,04,09,10,30,12.90
2004,04,09,10,31,13.00
2004,04,09,10,32,13.00
2004,04,09,10,33,13.00
2004,04,09,10,34,13.00
2004,04,09,10,35,13.00
2004,04,09,10,36,12.90
2004,04,09,10,37,12.90
2004,04,09,10,38,12.80
2004,04,09,10,39,12.90
2004,04,09,10,40,12.80
2004,04,09,10,41,12.80
2004,04,09,10,42,12.90
2004,04,09,10,43,12.90
2004,04,09,10,44,12.90
2004,04,09,10,45,13.00
2004,04,09,10,46,13.00
2004,04,09,10,47,12.90
2004,04,09,10,48,12.90
2004,04,09,10,49,12.90
2004,04,09,10,50,12.90
2004,04,09,10,51,12.90
2004,04,09,10,52,13.00
2004,04,09,10,53,12.90
2004,04,09,10,54,13.00
2004,04,09,10,55,13.00
2004,04,09,10,56,13.10
2004,04,09,10,57,13.20
2004,04,09,10,58,13.20
2004,04,09,10,59,13.30
2004,04,09,11,00,13.30
2004,04,09,11,01,13.40
2004,04,09,11,02,13.50
2004,04,09,11,03,13.60
2004,04,09,11,04,13.70
2004,04,09,11,05,13.80
2004,04,09,11,06,13.70
2004,04,09,11,07,13.60
2004,04,09,11,08,13.60
2004,04,09,11,09,13.50
2004,04,09,11,10,13.50
2004,04,09,11,11,13.50
2004,04,09,11,12,13.50
2004,04,09,11,13,13.40
2004,04,09,11,14,13.40
2004,04,09,11,15,13.50
2004,04,09,11,16,13.60
2004,04,09,11,17,13.70
2004,04,09,11,18,13.70
2004,04,09,11,19,13.70
2004,04,09,11,20,13.90
2004,04,09,11,21,13.90
2004,04,09,11,22,14.00
2004,04,09,11,23,14.00
2004,04,09,11,24,13.90
2004,04,09,11,25,13.80
2004,04,09,11,26,13.80
2004,04,09,11,27,13.70
2004,04,09,11,28,13.70
2004,04,09,11,29,13.70
2004,04,09,11,30,13.60
2004,04,09,11,31,13.60
2004,04,09,11,32,13.80
2004,04,09,11,33,13.90
2004,04,09,11,34,13.90
2004,04,09,11,35,13.80
2004,04,09,11,36,13.90
2004,04,09,11,37,13.90
2004,04,09,11,38,13.90
2004,04,09,11,39,13.90
2004,04,09,11,40,13.90
2004,04,09,11,41,13.90
2004,04,09,11,42,14.00
2004,04,09,11,43,14.20
2004,04,09,11,44,14.20
2004,04,09,11,45,14.30
2004,04,09,11,46,14.30
2004,04,09,11,47,14.40
2004,04,09,11,48,14.40
2004,04,09,11,49,14.40
2004,04,09,11,50,14.50
2004,04,09,11,51,14.60
2004,04,09,11,52,14.60
2004,04,09,11,53,14.60
2004,04,09,11,54,14.60
2004,04,09,11,55,14.60
2004,04,09,11,56,14.60
2004,04,09,11,57,14.50
2004,04,09,11,58,14.50
2004,04,09,11,59,14.50
2004,04,09,12,00,14.50
2004,04,09,12,01,14.50
2004,04,09,12,02,14.60
2004,04,09,12,03,14.60
2004,04,09,12,04,14.60
2004,04,09,12,05,14.60
2004,04,09,12,06,14.60
2004,04,09,12,07,14.50
2004,04,09,12,08,14.50
2004,04,09,12,09,14.40
2004,04,09,12,10,14.40
2004,04,09,12,11,14.40
2004,04,09,12,12,14.30
2004,04,09,12,13,14.20
2004,04,09,12,14,14.20
2004,04,09,12,15,14.20
2004,04,09,12,16,14.20
2004,04,09,12,17,14.10
2004,04,09,12,18,14.10
2004,04,09,12,19,14.00
2004,04,09,12,20,14.00
2004,04,09,12,21,14.00
2004,04,09,12,22,14.10
2004,04,09,12,23,14.10
2004,04,09,12,24,14.20
2004,04,09,12,25,14.40
2004,04,09,12,26,14.60
2004,04,09,12,27,14.60
2004,04,09,12,28,14.70
2004,04,09,12,29,14.80
2004,04,09,12,30,14.90
2004,04,09,12,31,14.90
2004,04,09,12,32,15.00
2004,04,09,12,33,15.00
2004,04,09,12,34,15.00
2004,04,09,12,35,15.10
2004,04,09,12,36,14.90
2004,04,09,12,37,14.90
2004,04,09,12,38,14.90
2004,04,09,12,39,14.80
2004,04,09,12,40,14.80
2004,04,09,12,41,14.80
2004,04,09,12,42,14.80
2004,04,09,12,43,14.80
2004,04,09,12,44,14.80
2004,04,09,12,45,14.80
2004,04,09,12,46,14.80
2004,04,09,12,47,14.90
2004,04,09,12,48,14.90
2004,04,09,12,49,15.00
2004,04,09,12,50,15.10
2004,04,09,12,51,15.10
2004,04,09,12,52,15.00
2004,04,09,12,53,14.90
2004,04,09,12,54,14.80
2004,04,09,12,55,14.80
2004,04,09,12,56,14.80
2004,04,09,12,57,14.80
2004,04,09,12,58,14.80
2004,04,09,12,59,14.70
2004,04,09,13,00,14.70
2004,04,09,13,01,14.50
2004,04,09,13,02,14.60
2004,04,09,13,03,14.60
2004,04,09,13,04,14.70
2004,04,09,13,05,14.70
2004,04,09,13,06,14.60
2004,04,09,13,07,14.60
2004,04,09,13,08,14.60
2004,04,09,13,09,14.60
2004,04,09,13,10,14.70
2004,04,09,13,11,14.80
2004,04,09,13,12,14.80
2004,04,09,13,13,14.90
2004,04,09,13,14,15.00
2004,04,09,13,15,15.10
2004,04,09,13,16,15.20
2004,04,09,13,17,15.30
2004,04,09,13,18,15.20
2004,04,09,13,19,15.20
2004,04,09,13,20,15.10
2004,04,09,13,21,15.00
2004,04,09,13,22,15.10
2004,04,09,13,23,15.10
2004,04,09,13,24,15.10
2004,04,09,13,25,15.10
2004,04,09,13,26,15.00
2004,04,09,13,27,15.00
2004,04,09,13,28,15.10
2004,04,09,13,29,15.10
2004,04,09,13,30,15.00
2004,04,09,13,31,15.00
2004,04,09,13,32,15.10
2004,04,09,13,33,15.10
2004,04,09,13,34,15.10
2004,04,09,13,35,15.10
2004,04,09,13,36,15.20
2004,04,09,13,37,15.30
2004,04,09,13,38,15.40
2004,04,09,13,39,15.40
2004,04,09,13,40,15.40
2004,04,09,13,41,15.50
2004,04,09,13,42,15.50
2004,04,09,13,43,15.50
2004,04,09,13,44,15.50
2004,04,09,13,45,15.40
2004,04,09,13,46,15.30
2004,04,09,13,47,15.30
2004,04,09,13,48,15.40
2004,04,09,13,49,15.40
2004,04,09,13,50,15.50
2004,04,09,13,51,15.60
2004,04,09,13,52,15.60
2004,04,09,13,53,15.70
2004,04,09,13,54,15.70
2004,04,09,13,55,15.70
2004,04,09,13,56,15.80
2004,04,09,13,57,15.80
2004,04,09,13,58,15.80
2004,04,09,13,59,15.80
2004,04,09,14,00,15.80
2004,04,09,14,01,15.90
2004,04,09,14,02,16.00
2004,04,09,14,03,16.10
2004,04,09,14,04,16.10
2004,04,09,14,05,16.30
2004,04,09,14,06,16.40
2004,04,09,14,07,16.60
2004,04,09,14,08,16.60
2004,04,09,14,09,16.60
2004,04,09,14,10,16.50
2004,04,09,14,11,16.30
2004,04,09,14,12,16.00
2004,04,09,14,13,15.80
2004,04,09,14,14,15.80
2004,04,09,14,15,15.60
2004,04,09,14,16,15.60
2004,04,09,14,17,15.60
2004,04,09,14,18,15.40
2004,04,09,14,19,15.50
2004,04,09,14,20,15.60
2004,04,09,14,21,15.70
2004,04,09,14,22,15.80
2004,04,09,14,23,15.90
2004,04,09,14,24,16.00
2004,04,09,14,25,16.20
2004,04,09,14,26,16.30
2004,04,09,14,27,16.40
2004,04,09,14,28,16.40
2004,04,09,14,29,16.40
2004,04,09,14,30,16.40
2004,04,09,14,31,16.30
2004,04,09,14,32,16.20
2004,04,09,14,33,16.20
2004,04,09,14,34,16.10
2004,04,09,14,35,16.10
2004,04,09,14,36,16.20
2004,04,09,14,37,16.30
2004,04,09,14,38,16.30
2004,04,09,14,39,16.30
2004,04,09,14,40,16.30
2004,04,09,14,41,16.30
2004,04,09,14,42,16.40
2004,04,09,14,43,16.40
2004,04,09,14,44,16.40
2004,04,09,14,45,16.40
2004,04,09,14,46,16.40
2004,04,09,14,47,16.30
2004,04,09,14,48,16.30
2004,04,09,14,49,16.20
2004,04,09,14,50,16.30
2004,04,09,14,51,16.40
2004,04,09,14,52,16.50
2004,04,09,14,53,16.70
2004,04,09,14,54,16.80
2004,04,09,14,55,16.90
2004,04,09,14,56,16.90
2004,04,09,14,57,17.00
2004,04,09,14,58,17.00
2004,04,09,14,59,17.00
2004,04,09,15,00,17.10
2004,04,09,15,01,17.00
2004,04,09,15,02,17.00
2004,04,09,15,03,17.00
2004,04,09,15,04,17.00
2004,04,09,15,05,17.00
2004,04,09,15,06,17.00
2004,04,09,15,07,17.10
2004,04,09,15,08,17.20
2004,04,09,15,09,17.30
2004,04,09,15,10,17.30
2004,04,09,15,11,17.30
2004,04,09,15,12,17.30
2004,04,09,15,13,17.20
2004,04,09,15,14,17.10
2004,04,09,15,15,17.10
2004,04,09,15,16,17.10
2004,04,09,15,17,17.20
2004,04,09,15,18,17.20
2004,04,09,15,19,17.10
2004,04,09,15,20,17.20
2004,04,09,15,21,17.30
2004,04,09,15,22,17.30
2004,04,09,15,23,17.30
2004,04,09,15,24,17.30
2004,04,09,15,25,17.30
2004,04,09,15,26,17.30
2004,04,09,15,27,17.40
2004,04,09,15,28,17.50
2004,04,09,15,29,17.50
2004,04,09,15,30,17.50
2004,04,09,15,31,17.50
2004,04,09,15,32,17.50
2004,04,09,15,33,17.50
2004,04,09,15,34,17.60
2004,04,09,15,35,17.70
2004,04,09,15,36,17.70
2004,04,09,15,37,17.50
2004,04,09,15,38,17.50
2004,04,09,15,39,17.50
2004,04,09,15,40,17.50
2004,04,09,15,41,17.60
2004,04,09,15,42,17.70
2004,04,09,15,43,17.70
2004,04,09,15,44,17.60
2004,04,09,15,45,17.50
2004,04,09,15,46,17.70
2004,04,09,15,47,17.60
2004,04,09,15,48,17.50
2004,04,09,15,49,17.40
2004,04,09,15,50,17.40
2004,04,09,15,51,17.40
2004,04,09,15,52,17.50
2004,04,09,15,53,17.50
2004,04,09,15,54,17.60
2004,04,09,15,55,17.60
2004,04,09,15,56,17.50
2004,04,09,15,57,17.40
2004,04,09,15,58,17.40
2004,04,09,15,59,17.30
2004,04,09,16,00,17.30
2004,04,09,16,01,17.40
2004,04,09,16,02,17.40
2004,04,09,16,03,17.40
2004,04,09,16,04,17.40
2004,04,09,16,05,17.40
2004,04,09,16,06,17.40
2004,04,09,16,07,17.30
2004,04,09,16,08,17.30
2004,04,09,16,09,17.30
2004,04,09,16,10,17.30
2004,04,09,16,11,17.40
2004,04,09,16,12,17.40
2004,04,09,16,13,17.40
2004,04,09,16,14,17.40
2004,04,09,16,15,17.40
2004,04,09,16,16,17.40
2004,04,09,16,17,17.40
2004,04,09,16,18,17.50
2004,04,09,16,19,17.50
2004,04,09,16,20,17.40
2004,04,09,16,21,17.50
2004,04,09,16,22,17.50
2004,04,09,16,23,17.50
2004,04,09,16,24,17.70
2004,04,09,16,25,17.80
2004,04,09,16,26,17.70
2004,04,09,16,27,17.60
2004,04,09,16,28,17.60
2004,04,09,16,29,17.50
2004,04,09,16,30,17.40
2004,04,09,16,31,17.40
2004,04,09,16,32,17.40
2004,04,09,16,33,17.50
2004,04,09,16,34,17.50
2004,04,09,16,35,17.40
2004,04,09,16,36,17.30
2004,04,09,16,37,17.30
2004,04,09,16,38,17.20
2004,04,09,16,39,17.20
2004,04,09,16,40,17.40
2004,04,09,16,41,17.50
2004,04,09,16,42,17.60
2004,04,09,16,43,17.70
2004,04,09,16,44,17.70
2004,04,09,16,45,17.80
2004,04,09,16,46,17.70
2004,04,09,16,47,17.70
2004,04,09,16,48,17.70
2004,04,09,16,49,17.60
2004,04,09,16,50,17.50
2004,04,09,16,51,17.50
2004,04,09,16,52,17.50
2004,04,09,16,53,17.50
2004,04,09,16,54,17.50
2004,04,09,16,55,17.50
2004,04,09,16,56,17.50
2004,04,09,16,57,17.50
2004,04,09,16,58,17.50
2004,04,09,16,59,17.60
2004,04,09,17,00,17.80
2004,04,09,17,01,17.80
2004,04,09,17,02,17.90
2004,04,09,17,03,17.90
2004,04,09,17,04,18.00
2004,04,09,17,05,18.10
2004,04,09,17,06,18.10
2004,04,09,17,07,18.10
2004,04,09,17,08,18.20
2004,04,09,17,09,18.20
2004,04,09,17,10,18.10
2004,04,09,17,11,18.00
2004,04,09,17,12,17.90
2004,04,09,17,13,17.90
2004,04,09,17,14,17.90
2004,04,09,17,15,17.80
2004,04,09,17,16,17.80
2004,04,09,17,17,17.80
2004,04,09,17,18,17.80
2004,04,09,17,19,17.80
2004,04,09,17,20,17.80
2004,04,09,17,21,17.80
2004,04,09,17,22,17.80
2004,04,09,17,23,17.80
2004,04,09,17,24,17.70
2004,04,09,17,25,17.70
2004,04,09,17,26,17.80
2004,04,09,17,27,17.70
2004,04,09,17,28,17.70
2004,04,09,17,29,17.70
2004,04,09,17,30,17.60
2004,04,09,17,31,17.50
2004,04,09,17,32,17.50
2004,04,09,17,33,17.50
2004,04,09,17,34,17.50
2004,04,09,17,35,17.60
2004,04,09,17,36,17.60
2004,04,09,17,37,17.60
2004,04,09,17,38,17.60
2004,04,09,17,39,17.60